Regional Weather Roundup
Issued by NWS

Home | Current Version | Previous Version | Text Only | Print | Product List | Glossary On
Versions: 1 2 3 4 5 6 7 8 9 10 11 12 13 14 15 16 17 18 19 20 21 22 23 24 25 26 27 28 29 30 31 32 33 34 35 36 37 38 39 40 41 42 43 44 45 46 47 48 49 50
000
ASUS45 KPSR 032210
RWRAZ

ARIZONA HOURLY REGIONAL WEATHER ROUNDUP
NATIONAL WEATHER SERVICE PHOENIX AZ
300 PM MST THU SEP 03 2015

NOTE: FAIR INDICATES FEW OR NO CLOUDS BELOW 12,000 FEET WITH NO
SIGNIFICANT WEATHER AND/OR OBSTRUCTIONS TO VISIBILITY.

AZZ001>003-036-032300-
NORTHWEST ARIZONA

CITY           SKY/WX    TMP DP  RH WIND       PRES   REMARKS
BULLHEAD CITY  SUNNY    102  32   8 S16       29.69F
KINGMAN        SUNNY     93  31  11 SW24G31   29.89F
$$

AZZ004>008-015-016-018-032300-
NORTH CENTRAL ARIZONA

CITY           SKY/WX    TMP DP  RH WIND       PRES   REMARKS
GRAND CANYON   SUNNY     78  37  22 SW13      30.13F
WILLIAMS       MOSUNNY   77  39  25 SW17      30.20F
PRESCOTT       PTSUNNY   82  40  22 S13       30.04F
FLAGSTAFF      MOSUNNY   73  45  36 SW18G24   30.19F
PAYSON           N/A     81  50  34 SW7G13    30.06F
PAGE           SUNNY     90  34  13 SW10      29.92F
$$

AZZ009>014-017-032300-
NORTHEAST ARIZONA

CITY           SKY/WX    TMP DP  RH WIND       PRES   REMARKS
WINSLOW        NOT AVBL
SAINT JOHNS    CLOUDY    71  55  56 S16G23    30.10S
WINDOW ROCK    PTSUNNY   79  41  25 W7        30.15F
SHOW LOW       CLOUDY    75  48  38 S12       30.14F
$$

AZZ023-032300-
GREATER PHOENIX AREA

CITY           SKY/WX    TMP DP  RH WIND       PRES   REMARKS
PHOENIX        PTSUNNY   93  64  38 S17       29.77F
BUCKEYE        MOSUNNY  100  46  16 S8        29.75F
GLENDALE       PTSUNNY   99  45  15 E16       29.81S BLWGDUST
LUKE AFB       SUNNY     99  61  28 SE21      29.75F HX 100
DEER VALLEY    PTSUNNY   97  47  18 S10G17    29.78F
SCOTTSDALE     PTSUNNY   92  61  35 S13G24    29.81F
MESA-FALCON    PTSUNNY   88  63  42 S15G23    29.80F
MESA-GATEWAY   PTSUNNY   88  64  45 S12       29.83F
$$

AZZ027-028-032300-
SOUTHWEST MARICOPA COUNTY AND PINAL COUNTY

CITY           SKY/WX    TMP DP  RH WIND       PRES   REMARKS
CASA GRANDE    PTSUNNY   75  66  73 W9G17     29.84S
GILA BEND      PTSUNNY  102  48  16 E7        29.72F
$$

AZZ503-504-507>509-032300-
SOUTHEAST ARIZONA

CITY           SKY/WX    TMP DP  RH WIND       PRES   REMARKS
TUCSON         TSTM      76  63  64 SE25G36   30.00R
DAVIS-MONTHAN  TSTM      75  61  60 S17G29    29.99R
RYAN FIELD     PTSUNNY   79  70  73 S7        29.96R
NOGALES        CLOUDY    69  62  78 S6        30.06R
SIERRA VISTA   LGT RAIN  72  61  68 W9        30.10R
DOUGLAS        CLOUDY    74  57  55 S16       30.07F
SAFFORD        CLOUDY    84  58  40 W9        29.93F
$$

AZZ020-021-025-026-031-032300-
SOUTHWEST ARIZONA

CITY           SKY/WX    TMP DP  RH WIND       PRES   REMARKS
YUMA           MOSUNNY  104  45  13 VRB7      29.68F HX 100
$$

CAZ031-033-041-043-047-048-061-032300-
SOUTHERN CALIFORNIA

CITY           SKY/WX    TMP DP  RH WIND       PRES   REMARKS
DOWNTOWN L.A.  SUNNY     76  56  49 VRB3      29.85F
L.A. AIRPORT   MOSUNNY   74  57  55 W14G21    29.86F
SAN DIEGO      MOSUNNY   74  57  55 W9        29.89F
BURBANK        SUNNY     79  55  43 S10       29.85F
ONTARIO        SUNNY     83  51  33 SW9       29.84F
RIVERSIDE      SUNNY     84  54  35 VRB6      29.84F
PALM SPRINGS   SUNNY    100  41  13 NW14      29.71F
EL CENTRO NAS  MOSUNNY  103  38  10 CALM      29.68F
IMPERIAL       SUNNY    103  37  10 CALM      29.66F
BLYTHE         SUNNY    103  57  21 SE14G21   29.68F HX 102
NEEDLES        SUNNY    104  35   9 S16G23    29.70F
$$

NVZ020-UTZ003-032300-
SOUTHERN NEVADA-UTAH

CITY           SKY/WX    TMP DP  RH WIND       PRES   REMARKS
LAS VEGAS      MOSUNNY   98  32  10 W12G18    29.70F
SALT LAKE CITY MOSUNNY   88  34  14 S22       29.82F
$$

NMZ009-TXZ055-032300-
NEW MEXICO-WEST TEXAS

CITY           SKY/WX    TMP DP  RH WIND       PRES   REMARKS
ALBUQUERQUE    MOSUNNY   85  44  23 VRB5      30.05F
EL PASO        CLOUDY    88  49  25 W9        29.98F
$$


........................KEY........................
SKY/WX - SKY CONDITION/WEATHER
TMP    - TEMPERATURE IN FAHRENHEIT
DP     - DEW POINT IN FAHRENHEIT
RH     - RELATIVE HUMIDITY IN PERCENT
WIND   - DIRECTION AND SPEED IN MILES PER HOUR (MPH)
VRB    - VARIABLE WIND DIRECTION
PRES   - MEAN SEA LEVEL PRESSURE IN INCHES OF MERCURY
         F - FALLING PRESSURE   R - RISING PRESSURE
         S - STEADY PRESSURE
VSB    - VISIBILITY IN MILES
HX     - HEAT INDEX IN FAHRENHEIT
WCI    - WIND CHILL INDEX IN FAHRENHEIT
TC     - TEMPERATURE IN CELSIUS WHICH IS ALSO KNOWN AS
         TEMPERATURE IN CENTIGRADE
AFB    - AIR FORCE BASE
         LUKE AFB IS LUKE AIR FORCE BASE
         DAVIS-MONTHAN IS DAVIS-MONTHAN AIR FORCE BASE
NAS    - NAVAL AIR STATION
         EL CENTRO NAS IS EL CENTRO NAVAL AIR STATION
N/A    - NOT AVAILABLE



USA.gov is the U.S. government's official web portal to all federal, state and local government web resources and services.